TimeCDT,TemperatureF,Dew PointF,Humidity,Sea Level PressureIn,VisibilityMPH,Wind Direction,Wind SpeedMPH,Gust SpeedMPH,PrecipitationIn,Events,Conditions,WindDirDegrees,DateUTC
12:52 AM,66.9,57.9,73,29.99,10.0,South,15.0,-,0.01,Rain,Light Rain,180,2013-03-30 05:52:00
1:52 AM,64.0,57.0,78,29.99,10.0,ESE,6.9,-,N/A,,Partly Cloudy,110,2013-03-30 06:52:00
2:52 AM,61.0,55.9,83,29.96,10.0,SSE,8.1,-,N/A,,Clear,150,2013-03-30 07:52:00
3:52 AM,60.1,55.9,86,29.95,10.0,SSE,11.5,-,N/A,,Clear,150,2013-03-30 08:52:00
4:52 AM,59.0,55.0,87,29.94,10.0,SSE,11.5,-,N/A,,Clear,160,2013-03-30 09:52:00
5:52 AM,57.9,54.0,87,29.94,10.0,SSE,8.1,-,N/A,,Clear,160,2013-03-30 10:52:00
6:52 AM,55.9,54.0,93,29.96,10.0,SE,8.1,-,N/A,,Clear,140,2013-03-30 11:52:00
7:52 AM,57.0,55.0,93,29.96,10.0,South,8.1,-,N/A,,Clear,180,2013-03-30 12:52:00
8:40 AM,60.8,57.2,88,30.02,10.0,South,5.8,-,N/A,,Mostly Cloudy,190,2013-03-30 13:40:00
8:52 AM,62.1,57.0,84,29.97,10.0,South,8.1,-,N/A,,Overcast,190,2013-03-30 13:52:00
9:52 AM,64.0,57.9,80,29.98,10.0,SW,12.7,-,N/A,,Overcast,220,2013-03-30 14:52:00
10:52 AM,68.0,57.9,70,29.96,10.0,SW,15.0,-,N/A,,Mostly Cloudy,220,2013-03-30 15:52:00
11:52 AM,70.0,59.0,68,29.95,10.0,SSW,10.4,18.4,N/A,,Scattered Clouds,210,2013-03-30 16:52:00
12:52 PM,75.9,57.9,54,29.91,10.0,SSW,10.4,20.7,N/A,,Clear,210,2013-03-30 17:52:00
1:52 PM,80.1,57.0,45,29.89,10.0,SW,10.4,-,N/A,,Clear,220,2013-03-30 18:52:00
2:52 PM,82.0,55.0,39,29.86,10.0,Variable,5.8,19.6,N/A,,Clear,0,2013-03-30 19:52:00
3:52 PM,86.0,51.1,30,29.83,10.0,Variable,5.8,-,N/A,,Clear,0,2013-03-30 20:52:00
4:52 PM,86.0,46.0,25,29.80,10.0,Variable,3.5,-,N/A,,Clear,0,2013-03-30 21:52:00
5:52 PM,87.1,41.0,20,29.78,10.0,West,8.1,-,N/A,,Clear,260,2013-03-30 22:52:00
6:52 PM,84.9,41.0,21,29.78,10.0,Variable,3.5,-,N/A,,Clear,0,2013-03-30 23:52:00
7:52 PM,78.1,52.0,40,29.79,10.0,SE,10.4,-,N/A,,Clear,140,2013-03-31 00:52:00
8:52 PM,73.0,51.1,46,29.81,10.0,SE,9.2,-,N/A,,Clear,140,2013-03-31 01:52:00
9:52 PM,70.0,53.1,55,29.83,10.0,SSE,16.1,23.0,N/A,,Clear,150,2013-03-31 02:52:00
10:52 PM,70.0,55.9,61,29.83,10.0,SSE,17.3,-,N/A,,Clear,160,2013-03-31 03:52:00
11:52 PM,71.1,57.0,61,29.82,10.0,South,17.3,21.9,N/A,,Clear,170,2013-03-31 04:52:00